N137WZ YBCG-YBCG

Flight info

Callsign N137WZ
Flight time N/A
Altitude 1000
Route Q1
Aircraft H60/L-VGD/A

Departure

Time 2026-05-06 12:30
Airport Gold Coast Airport (YBCG)

Arrival

Time N/A
Airport Gold Coast Airport (YBCG)
Time Latitude Longitude Altitude Speed Heading
2026-05-06 12:25 -28.16249 153.51024 22 ft 0 kts 39°
2026-05-06 12:25 -28.16248 153.51027 24 ft 2 kts 36°
2026-05-06 12:25 -28.16224 153.51010 27 ft 5 kts 312°
2026-05-06 12:26 -28.16220 153.51005 28 ft 1 kts 305°
2026-05-06 12:26 -28.16218 153.51002 29 ft 1 kts 298°
2026-05-06 12:26 -28.16214 153.50995 30 ft 8 kts 291°
2026-05-06 12:26 -28.16251 153.50748 34 ft 44 kts 254°
2026-05-06 12:27 -28.16370 153.50457 44 ft 22 kts 240°
2026-05-06 12:27 -28.16369 153.50379 35 ft 1 kts 150°
2026-05-06 12:27 -28.16358 153.50369 33 ft 12 kts 153°
2026-05-06 12:27 -28.16380 153.50381 34 ft 10 kts 152°
2026-05-06 12:28 -28.16377 153.50376 32 ft 1 kts 153°
2026-05-06 12:28 -28.16379 153.50377 32 ft 1 kts 152°
2026-05-06 12:28 -28.16381 153.50377 32 ft 1 kts 152°
2026-05-06 12:28 -28.16378 153.50375 32 ft 1 kts 152°
2026-05-06 12:29 -28.16405 153.50415 46 ft 33 kts 124°
2026-05-06 12:29 -28.16063 153.50970 137 ft 130 kts 20°
2026-05-06 12:29 -28.15176 153.50738 351 ft 139 kts 326°
2026-05-06 12:29 -28.14321 153.50266 482 ft 137 kts 322°
2026-05-06 12:30 -28.13473 153.49778 503 ft 136 kts 320°
2026-05-06 12:30 -28.12631 153.49307 593 ft 132 kts 321°
2026-05-06 12:30 -28.11801 153.48915 733 ft 131 kts 323°
2026-05-06 12:30 -28.10882 153.48478 389 ft 153 kts 326°
2026-05-06 12:31 -28.09891 153.47927 563 ft 168 kts 324°
2026-05-06 12:31 -28.08833 153.47283 473 ft 173 kts 324°
2026-05-06 12:31 -28.07755 153.46653 665 ft 180 kts 325°
2026-05-06 12:31 -28.06577 153.46058 516 ft 186 kts 330°
2026-05-06 12:32 -28.05458 153.45455 751 ft 172 kts 326°
2026-05-06 12:32 -28.04297 153.44947 754 ft 187 kts 337°
2026-05-06 12:32 -28.02994 153.44816 570 ft 189 kts 350°
2026-05-06 12:32 -28.01719 153.44592 570 ft 182 kts 342°
2026-05-06 12:33 -28.00666 153.43898 628 ft 172 kts 310°
2026-05-06 12:33 -28.00380 153.42650 802 ft 169 kts 269°
2026-05-06 12:33 -28.00282 153.41314 860 ft 172 kts 266°
2026-05-06 12:33 -28.00185 153.39957 868 ft 174 kts 265°
2026-05-06 12:34 -28.00553 153.38692 541 ft 159 kts 235°
2026-05-06 12:34 -28.01137 153.37908 416 ft 104 kts 238°
2026-05-06 12:34 -28.01011 153.37428 312 ft 38 kts 25°
2026-05-06 12:34 -28.00724 153.37476 224 ft 45 kts
2026-05-06 12:35 -28.00570 153.37512 175 ft 6 kts
2026-05-06 12:35 -28.00535 153.37516 52 ft 6 kts
2026-05-06 12:35 -28.00488 153.37551 28 ft 7 kts 340°
2026-05-06 12:35 -28.00478 153.37552 25 ft 0 kts 225°